Location: Unspecified
(0.0000°N, 0.0000°E)
Time: 17:52:39
(UTC+00:00)

Transit 4A - All Passes

Search period start: 18 January 2020 00:00
Search period end: 28 January 2020 00:00
Orbit: 871 x 973 km, 66.8° (Epoch: 17 January)

Date Brightness Start Highest point End Pass type
(mag) Time Alt. Az. Time Alt. Az. Time Alt. Az.
18 Jan - 06:33:00 10° SSW 06:39:19 84° ESE 06:45:26 10° NNE daylight
18 Jan - 17:45:23 10° N 17:50:28 30° ENE 17:55:39 10° SE daylight
18 Jan - 19:32:13 10° WNW 19:36:33 21° WSW 19:40:59 10° SSW visible
19 Jan - 05:00:23 10° SE 05:02:23 12° ESE 05:04:21 10° E visible
19 Jan - 06:42:25 10° SSW 06:48:35 58° WNW 06:54:34 10° N daylight
19 Jan - 17:54:01 10° N 17:59:44 53° ENE 18:05:35 10° SSE daylight
19 Jan - 19:43:58 10° W 19:45:54 12° WSW 19:47:51 10° SW visible
20 Jan - 05:07:11 10° SSE 05:11:44 21° ESE 05:16:12 10° ENE visible
20 Jan - 06:52:18 10° SW 06:57:51 34° WNW 07:03:17 10° N daylight
20 Jan - 18:03:05 10° NNW 18:08:59 89° WSW 18:15:04 10° SSE daylight
21 Jan - 05:15:24 10° S 05:21:04 35° ESE 05:26:35 10° NE visible
21 Jan - 07:02:47 10° WSW 07:07:08 20° WNW 07:11:24 10° NNW daylight
21 Jan - 16:30:14 10° NE 16:32:14 12° ENE 16:34:15 10° E daylight
21 Jan - 18:12:34 10° NW 18:18:17 52° WSW 18:24:09 10° S daylight
22 Jan - 05:24:11 10° S 05:30:23 60° ESE 05:36:23 10° NNE visible
22 Jan - 07:15:15 10° W 07:16:26 11° WNW 07:17:37 10° WNW daylight
22 Jan - 16:37:10 10° NNE 16:41:31 21° ENE 16:45:58 10° ESE daylight
22 Jan - 18:22:30 10° NW 18:27:34 30° WSW 18:32:48 10° S daylight
23 Jan - 05:33:22 10° SSW 05:39:39 81° WNW 05:45:45 10° NNE visible
23 Jan - 16:45:25 10° N 16:50:48 37° ENE 16:56:18 10° SE daylight
23 Jan - 18:33:08 10° WNW 18:36:55 17° WSW 18:40:44 10° SSW visible
24 Jan - 03:59:30 10° SE 04:02:45 14° ESE 04:05:58 10° E visible
24 Jan - 05:42:57 10° SW 05:48:55 47° WNW 05:54:45 10° N visible
24 Jan - 16:54:14 10° N 17:00:03 65° ENE 17:06:03 10° SSE daylight
25 Jan - 04:07:04 10° SSE 04:12:06 25° ESE 04:17:01 10° ENE visible
25 Jan - 05:53:00 10° SW 05:58:11 28° WNW 06:03:17 10° NNW daylight
25 Jan - 17:03:27 10° NNW 17:09:19 74° WSW 17:15:23 10° SSE daylight
26 Jan - 04:15:31 10° S 04:21:25 43° ESE 04:27:09 10° NE visible
26 Jan - 06:03:52 10° WSW 06:07:29 16° WNW 06:11:02 10° NW daylight
26 Jan - 15:29:22 10° NE 15:32:35 15° ENE 15:35:49 10° ESE daylight
26 Jan - 17:13:04 10° NW 17:18:36 42° WSW 17:24:19 10° S daylight
27 Jan - 04:24:27 10° SSW 04:30:43 73° ESE 04:36:47 10° NNE visible
27 Jan - 15:37:02 10° NNE 15:41:52 26° ENE 15:46:47 10° SE daylight
27 Jan - 17:23:12 10° WNW 17:27:55 25° WSW 17:32:46 10° SSW daylight
